User: anonymous   Login
Location: Cedar Falls
(42.5280°N, 92.4450°W)
Time: 08:07:53
(UTC-05:00)
Language:

NOSS 3-1 (C) - Orbit

View from above orbital plane
View from above orbital plane
View from above satellite
View from above satellite

Ground track
Ground track

The orbit data is extracted from the following two-line orbital elements,

1 26907U 01040C   16111.84287451 0.00000010  00000-0  12999-4 0    06
2 26907  63.4198  27.7479 0332000 358.1020   1.8980 13.41252386    01
Epoch (UTC): 20 April 2016 20:13:44
Eccentricity: 0.0332000
inclination: 63.4198°
perigee height: 856 km
apogee height: 1353 km
right ascension of ascending node: 27.7479°
argument of perigee: 358.1020°
revolutions per day: 13.41252386
mean anomaly at epoch: 1.8980°
orbit number at epoch: 0

The dashed part of the orbit path shows where the satellite is in the earth's shadow,  

DLR